#timestamp,LO_Frequency,Hit,StdDev 
1618718415.7,286047001.1,N
1618718435.5,286047000.9,N
1618718455.4,286047001.2,N
1618718475.2,286046998.9,N
1618718495.0,286046999.1,N
1618718496.0,286046999.1,N
1618718515.8,286046998.2,N
1618718535.6,286047000.7,N
1618718555.5,286046997.0,N
1618718575.3,286046997.1,N
1618718595.1,286046995.2,Y
1618718615.9,286046999.6,P
1618718635.7,286047001.1,P
1618718655.6,286047004.4,P
1618718675.4,286047002.1,N
1618718695.2,286047000.1,N
1618718715.1,286047002.6,N
1618718716.0,286047002.6,N
1618718735.8,286047000.7,N
1618718755.7,286046996.7,N
1618718775.5,286046997.5,N
1618718795.3,286046995.0,N
1618718815.2,286046997.1,N
1618718835.0,286046998.9,N
1618718835.9,286046998.9,N
1618718855.7,286046998.3,N
1618718875.6,286047000.7,N
1618718895.4,286047000.0,N
1618718915.3,286047005.9,N
1618718935.1,286047003.8,N
1618718936.0,286047003.8,N
1618718955.8,286047005.9,N
1618718975.7,286047004.2,N
1618718995.5,286047005.6,N
1618719015.3,286047003.6,N
1618719035.2,286046999.8,N
1618719055.0,286047001.5,N
1618719055.9,286047001.5,N
1618719075.8,286047002.1,N
1618719095.6,286047002.1,N
1618719115.4,286046999.9,N
1618719135.3,286047001.9,N
1618719155.1,286047002.1,N
1618719175.8,286047005.0,N
1618719195.7,286047007.4,N
1618719215.5,286047005.4,N
1618719235.4,286047003.7,N
1618719255.2,286047003.2,N
1618719275.0,286047004.4,N
1618719275.9,286047004.4,N
1618719295.8,286047000.3,N
1618719315.6,286046998.5,N
1618719335.5,286046999.3,N
1618719355.3,286046999.3,N
1618719375.1,286046996.6,N
1618719395.9,286047000.0,N
1618719415.7,286046999.0,N
1618719435.5,286046999.5,N
1618719455.4,286046999.5,N
1618719475.2,286047001.1,N
1618719495.1,286047000.7,N
1618719496.0,286047000.7,N
1618719515.8,286047001.1,N
1618719535.6,286046999.4,N
1618719555.5,286046997.2,N
1618719575.3,286046997.9,N
1618719595.2,286046997.1,N
1618719615.9,286047000.9,N
1618719635.7,286046999.8,N
1618719655.6,286047000.4,N
1618719675.4,286046998.6,N
1618719695.3,286046998.1,N
1618719715.1,286047002.7,N
1618719716.0,286047002.7,N
1618719735.8,286047000.7,N
1618719755.7,286047000.8,N
1618719775.5,286046998.6,N
1618719795.4,286047002.5,N
1618719815.2,286047001.9,N
1618719835.0,286047003.5,N
1618719835.9,286047003.5,N
1618719855.8,286047002.1,N
1618719875.6,286047000.6,N
1618719895.4,286046999.4,N
1618719915.3,286046997.1,N
1618719935.1,286046996.7,N
1618719955.9,286047000.5,N
1618719975.7,286047000.5,N
1618719995.5,286046998.8,N
1618720015.4,286046999.5,N
1618720035.2,286046997.0,N
1618720055.0,286046998.5,N
1618720055.9,286046998.5,N
1618720075.8,286046998.1,N
1618720095.6,286047001.2,N
1618720115.5,286047000.4,N
1618720135.3,286046999.3,N
1618720155.1,286046998.3,N
1618720175.9,286046997.0,N
1618720195.7,286046997.9,N
1618720215.5,286046997.9,N
1618720235.4,286046999.6,N
1618720255.2,286047002.6,N
1618720275.1,286047002.5,N
1618720276.0,286047002.5,N
1618720295.8,286046998.3,N
1618720315.6,286046999.5,N
1618720335.5,286046998.3,N
1618720355.3,286046998.7,N
1618720375.1,286047000.5,N
1618720395.9,286046999.9,N
1618720415.7,286046999.9,N
1618720435.6,286047004.4,N
1618720455.4,286047002.9,N
1618720475.2,286047004.4,N
1618720495.1,286046998.5,N
1618720496.0,286046998.5,N
1618720515.8,286046998.3,N
1618720535.7,286046998.7,N
1618720555.5,286046999.2,N
1618720575.3,286046997.0,N
1618720595.2,286046999.4,N
1618720615.0,286047000.7,N
1618720615.9,286047000.7,N
1618720635.8,286046999.9,N
1618720655.6,286046999.8,N
1618720675.4,286047000.5,N
1618720695.3,286047001.4,N
1618720715.1,286047002.0,N
1618720735.8,286046999.7,N
1618720755.7,286047001.1,N
1618720775.5,286046999.5,N
1618720795.4,286046997.4,N
1618720815.2,286046997.1,N
1618720835.0,286046994.9,N
1618720835.9,286046994.9,N
1618720855.8,286046995.6,N
1618720875.6,286046995.3,N
1618720895.5,286046997.4,N
1618720915.3,286046998.8,N
1618720935.1,286046998.9,N
1618720955.9,286046998.9,N
1618720975.7,286047000.8,N
1618720995.5,286047000.8,N
1618721015.4,286047001.8,N
1618721035.2,286047005.5,N
1618721055.1,286047004.1,N
1618721056.0,286047004.1,N
1618721075.8,286047001.4,N
1618721095.7,286047004.3,N
1618721115.5,286047004.6,N
1618721135.3,286047004.5,N
1618721155.2,286047005.9,N
1618721175.0,286047003.5,N
1618721175.9,286047003.5,N
1618721195.8,286047006.0,N
1618721215.6,286047005.3,N
1618721235.4,286047003.3,N
1618721255.3,286047001.1,N
1618721275.1,286047000.0,N
1618721295.8,286047002.8,N
1618721315.7,286047000.6,N
1618721335.5,286046998.5,N
1618721355.4,286047002.6,N
1618721375.2,286047004.3,N
1618721395.0,286047001.9,N
1618721395.9,286047001.9,N
1618721415.8,286047000.3,N
1618721435.6,286046999.4,N
1618721455.5,286046996.7,N
1618721475.3,286046995.6,N
1618721495.1,286046994.9,N
1618721515.9,286046998.0,N
1618721535.7,286046997.5,N
1618721555.6,286046996.5,N
1618721575.4,286046998.3,N
1618721595.2,286046996.9,N
1618721615.1,286046994.9,N
1618721616.0,286046994.9,N
1618721635.8,286046996.8,N
1618721655.6,286046997.1,N
1618721675.5,286046998.6,N
1618721695.3,286046998.1,N
1618721715.2,286046999.0,N
1618721735.9,286046997.2,N
1618721755.7,286046997.2,N
1618721775.6,286046997.5,N
1618721795.4,286046996.2,N
1618721815.2,286046997.8,N
1618721835.1,286046996.7,N
1618721836.0,286046996.7,N
1618721855.8,286046997.1,N
1618721875.7,286046994.9,N
1618721895.5,286046996.8,N
1618721915.3,286047002.5,N
1618721935.2,286046999.9,N
1618721955.0,286046997.0,N
1618721955.9,286046997.0,N
1618721975.8,286046995.2,Y
1618721995.6,286046999.2,P
